Helicity
100 72 103 67 56 24 36 48 49 40 50 73 74 63 57 48 79 75 50 53 43 54 89 139 150 120 100 85 110 135 150 155 143 133 109 111 131 116 124 135 123 93 91 97
101 82 84 20 11 35 46 37 23 38 60 62 47 99 84 64 31 29 17 20 -1 -2 14 54 91 92 72 76 98 128 121 136 128 119 127 131 146 124 129 117 108 102 103 115
87 52 8 23 51 67 45 37 26 34 72 108 73 76 67 41 24 4 -10 -21 -45 -37 -32 -16 18 16 38 43 59 77 92 95 90 95 131 128 99 109 115 135 133 119 135 154
32 -4 17 44 60 36 39 13 19 47 51 74 43 50 50 41 39 23 13 -30 -70 -88 -56 -59 -49 -45 -30 -14 36 44 63 83 115 150 134 121 127 134 159 148 130 134 166 171
52 50 60 87 56 18 19 38 52 68 68 55 50 25 63 58 46 36 4 -24 -49 -66 -65 -57 -42 -49 -24 4 31 45 53 95 136 131 123 137 138 160 164 139 141 166 182 176
61 30 29 44 30 26 55 39 38 38 30 63 25 7 49 52 22 30 12 -17 -46 -37 -15 -17 -20 -9 9 28 40 54 79 100 111 128 132 151 152 144 136 150 170 177 176 182
93 64 33 30 58 38 27 1 17 41 72 71 25 19 51 -4 8 30 17 11 -4 31 19 15 -2 16 38 50 51 82 118 128 146 153 154 150 152 149 151 171 190 181 184 156
89 85 51 47 34 37 18 -11 8 33 37 40 31 46 40 10 17 35 38 12 34 51 21 20 10 35 61 73 85 116 146 160 168 154 148 150 152 159 170 173 179 183 172 139
79 62 60 64 46 15 38 17 17 44 45 22 29 33 23 38 35 49 74 70 83 65 32 27 40 60 89 104 82 121 143 155 137 132 144 153 157 153 151 157 176 147 128 114
43 57 70 78 62 98 28 81 18 53 17 13 53 50 32 43 47 83 92 104 87 43 35 46 61 82 111 117 102 119 151 143 129 127 136 142 156 148 142 149 126 121 100 90
52 35 46 68 76 72 64 60 72 70 65 45 47 48 89 45 57 37 49 95 81 45 42 44 74 105 121 114 86 99 134 123 123 127 134 136 134 135 125 116 112 104 90 93
73 70 88 102 84 47 83 68 50 48 65 97 110 84 99 64 32 33 45 103 74 59 64 71 90 117 112 89 78 120 132 133 165 157 147 135 149 138 118 101 107 100 93 81
61 103 126 118 112 102 113 102 105 129 102 83 78 77 93 53 37 58 48 35 64 64 60 73 113 109 80 59 103 139 153 182 206 172 152 141 127 130 104 110 113 84 72 73
93 132 129 125 144 132 118 104 99 104 90 77 88 63 44 38 29 40 29 38 55 37 50 88 94 83 71 69 121 162 209 199 202 186 147 134 142 113 120 139 105 85 72 49
98 131 122 138 141 116 105 102 96 76 66 68 60 70 14 38 28 35 41 52 61 67 83 59 72 68 81 94 153 199 233 212 229 186 141 141 113 124 150 140 110 84 52 39
110 149 150 162 116 102 103 89 72 64 62 49 49 28 66 49 52 49 52 67 71 71 46 40 70 71 81 133 154 187 248 290 221 163 144 111 121 144 149 128 98 72 40 60
160 160 164 184 123 132 120 79 62 42 54 68 60 86 54 64 75 72 58 68 70 63 46 55 61 81 101 116 160 235 282 247 189 132 101 117 138 142 128 101 67 29 44 45
127 137 121 138 120 126 95 49 52 40 35 63 50 43 62 66 42 74 65 49 53 62 79 89 93 89 92 123 187 248 227 187 130 92 102 120 139 134 103 68 71 40 39 14
88 96 112 109 101 107 81 76 89 89 53 74 52 74 65 45 32 98 85 62 62 85 100 99 93 74 100 106 141 174 177 133 91 102 105 137 141 115 77 60 42 55 17 31
121 147 109 111 98 93 88 118 122 114 49 51 51 45 54 44 66 89 86 97 107 118 102 83 52 102 141 143 158 186 148 108 99 111 114 143 127 92 80 73 30 12 -13 -18
116 140 116 148 139 147 104 131 143 101 67 70 62 56 62 83 92 88 92 107 108 91 40 34 49 84 112 144 148 177 130 104 103 90 125 131 109 97 67 45 19 49 59 15
150 151 146 163 134 107 95 135 126 106 81 81 91 73 102 84 99 108 105 84 57 28 4 28 55 84 113 133 143 145 111 96 84 102 124 121 91 78 49 39 11 24 35 12
138 106 128 106 125 95 67 103 69 57 69 72 81 90 97 94 123 105 82 40 26 13 24 47 59 93 111 131 137 123 94 90 84 105 124 75 82 67 31 29 13 27 7 14
91 115 103 94 87 71 61 49 47 67 72 106 99 91 108 129 85 82 65 55 37 28 29 44 53 95 121 131 120 99 86 80 83 103 112 57 73 61 30 21 17 16 21 9
136 102 89 77 59 49 32 27 49 77 103 110 101 110 105 77 92 82 68 57 45 26 33 39 65 104 124 114 104 75 81 66 93 108 99 46 61 50 31 36 40 29 20 23
113 103 92 57 84 88 72 53 70 79 79 106 119 97 96 113 98 75 68 66 44 29 32 56 97 118 127 105 84 79 69 67 86 101 81 29 52 52 22 30 33 21 24 34
Wind_Speed
26 22 31 30 28 28 29 33 36 37 42 32 33 36 48 29 20 16 11 9 7 8 12 13 16 23 27 28 26 21 19 18 17 19 21 27 36 42 46 48 52 59 64 68
24 20 28 26 27 29 33 36 41 37 45 33 30 41 47 40 26 21 16 14 10 13 13 12 14 22 28 30 29 25 19 17 15 19 27 34 43 48 49 53 58 60 65 68
21 21 23 23 26 31 36 40 43 46 41 41 32 32 40 39 35 27 22 18 18 17 16 14 14 20 25 30 34 29 24 19 20 27 35 43 46 48 55 61 64 64 67 67
24 24 22 23 29 35 43 46 46 42 36 39 38 33 32 38 35 33 30 25 24 23 23 23 26 27 29 33 34 32 24 22 27 32 38 47 53 57 59 63 64 69 68 71
23 23 23 28 33 35 42 46 47 42 33 33 46 34 35 32 28 27 26 23 23 21 26 30 32 33 32 32 31 30 29 29 30 36 43 46 51 56 58 62 67 69 69 70
20 24 27 28 34 38 36 44 43 41 33 38 48 41 38 28 25 24 23 21 20 22 31 30 32 33 33 30 29 30 28 29 37 43 43 44 51 54 60 65 67 67 70 72
23 25 25 29 35 39 42 49 48 42 44 43 45 39 40 26 26 22 21 18 20 31 30 31 35 35 34 34 32 32 32 35 39 39 41 44 50 58 63 64 64 66 66 71
21 24 25 32 34 35 42 47 46 47 47 49 41 41 41 32 27 23 19 14 25 29 29 32 34 36 38 37 37 35 37 39 40 41 45 49 54 57 59 61 64 68 69 63
22 25 26 30 30 36 39 45 40 42 41 43 40 37 35 32 25 24 19 17 25 27 29 32 34 36 36 38 39 37 39 40 40 46 50 54 56 60 63 65 67 67 66 63
19 27 27 24 31 42 37 33 46 45 48 52 44 44 46 45 30 21 21 23 27 27 29 32 36 38 35 38 37 38 40 43 46 50 54 59 63 65 66 68 70 69 66 62
20 25 27 25 34 35 36 40 44 41 43 49 51 51 44 43 46 41 31 30 23 26 26 30 36 38 34 37 37 38 41 46 50 55 59 64 68 70 70 72 71 69 67 64
21 25 28 29 31 32 37 39 41 47 49 45 49 53 41 50 47 41 37 23 23 29 32 36 38 33 34 36 37 40 44 47 54 58 62 66 70 74 76 72 69 69 67 67
13 28 30 31 31 34 38 40 42 43 44 48 54 52 53 53 48 44 34 24 29 31 35 36 34 33 35 37 42 43 46 51 56 58 62 70 76 80 77 72 71 69 70 65
25 29 30 35 38 36 38 41 42 42 48 52 49 60 62 57 48 42 38 36 35 33 34 36 33 34 38 42 44 47 50 53 57 60 67 73 77 77 71 69 70 68 69 60
32 34 35 35 37 38 41 43 42 45 48 52 60 54 49 54 47 44 41 37 40 37 38 33 32 39 44 50 50 48 51 53 58 63 68 74 74 69 67 66 65 67 60 54
35 36 33 36 39 42 43 45 45 45 47 46 47 47 47 45 44 44 42 38 42 41 40 32 34 51 59 56 52 51 50 53 56 63 70 71 68 65 62 60 64 62 57 50
34 31 35 44 42 46 48 43 39 45 44 46 49 47 49 45 48 49 48 46 46 49 52 55 57 57 56 56 54 52 50 51 57 64 69 68 65 63 63 64 60 57 54 51
30 34 39 43 40 47 44 34 39 41 49 42 39 41 40 41 44 48 52 52 52 53 58 62 62 64 64 62 55 51 48 52 58 65 69 65 64 64 65 61 58 54 47 46
32 32 38 39 40 46 40 37 38 42 53 40 37 38 36 40 38 46 56 56 55 56 57 60 62 63 65 60 51 48 51 54 60 68 65 65 65 65 61 63 61 55 48 42
34 34 35 38 48 54 47 43 36 38 52 38 37 37 39 39 47 49 56 57 60 61 62 65 66 65 60 55 48 51 54 58 64 65 62 64 65 61 62 60 55 50 42 38
40 40 42 44 51 51 44 39 33 45 50 37 37 39 39 42 44 45 51 55 59 61 65 68 69 63 55 48 46 50 55 60 61 58 59 62 59 61 57 51 43 30 27 34
41 45 48 47 55 62 40 31 36 38 34 35 36 36 39 38 41 46 52 57 63 71 75 74 68 60 51 46 46 51 56 57 56 57 58 58 58 56 51 45 36 32 36 32
43 38 45 38 47 42 38 34 34 30 38 35 34 35 37 38 44 49 53 61 68 75 77 70 65 56 49 43 45 51 53 54 54 56 57 52 56 54 49 45 41 40 29 32
38 35 43 45 41 39 34 25 24 28 34 30 32 35 36 40 44 50 55 62 66 73 72 67 62 55 47 42 45 50 51 51 53 54 53 50 52 52 48 47 45 42 36 32
38 22 22 24 29 29 23 17 20 25 27 29 30 34 37 42 49 51 57 59 64 69 70 68 63 52 44 41 46 48 49 48 53 51 50 49 47 47 43 49 39 33 32 33
14 12 11 11 17 21 25 20 19 21 20 24 30 35 42 47 50 53 54 57 63 68 70 66 57 47 42 43 45 47 47 47 50 49 48 47 45 41 36 38 40 37 36 37
Wind_Direction
337 5 350 1 20 27 24 17 1 11 0 22 13 360 338 5 17 17 35 35 56 61 36 35 30 21 20 21 19 21 23 24 20 13 358 349 343 342 343 345 344 343 343 342
347 5 354 40 47 23 7 356 341 355 350 10 14 351 351 3 22 27 44 46 66 22 19 19 12 6 9 11 10 11 12 9 10 359 351 344 343 343 344 344 344 343 342 341
4 13 44 47 35 8 354 347 344 338 352 4 13 10 3 10 19 35 41 48 46 45 35 23 7 359 360 0 2 3 4 2 359 351 347 343 344 344 342 341 341 341 340 340
7 20 75 42 7 356 340 337 341 348 359 1 360 11 17 13 25 32 33 46 42 40 28 18 11 3 357 355 1 4 7 4 359 355 348 345 342 340 341 341 341 340 340 338
11 34 28 4 2 3 339 346 346 356 11 21 359 10 10 16 31 37 38 42 42 36 19 12 10 6 5 3 3 10 10 9 5 358 352 349 345 344 343 343 341 340 340 339
28 11 10 20 16 3 8 351 358 9 12 2 359 5 8 24 30 33 33 36 37 21 12 14 12 11 11 17 16 13 12 8 3 356 356 354 349 348 346 345 344 344 342 341
3 358 17 15 358 3 359 348 342 352 352 354 359 5 6 27 26 27 23 26 19 8 13 15 12 13 16 17 20 18 13 5 2 4 1 357 353 349 347 347 347 346 345 343
351 348 2 355 356 0 358 357 350 346 351 350 4 2 8 23 21 22 20 21 6 7 11 12 13 14 14 15 14 14 10 6 6 4 360 356 353 351 349 349 347 345 345 347
350 350 360 352 4 357 356 352 3 1 360 358 4 11 12 16 19 17 13 4 0 6 9 9 11 11 13 10 7 9 7 7 7 1 358 355 354 351 348 346 345 344 345 346
4 342 353 9 357 351 356 17 353 357 349 346 356 357 356 1 6 7 1 356 356 1 3 6 7 5 9 6 8 8 5 1 1 359 357 354 351 348 346 345 343 343 344 345
4 353 359 3 347 350 358 356 357 1 357 349 348 349 355 359 354 352 352 355 3 4 5 4 1 3 7 5 5 4 3 359 356 354 353 351 350 347 345 343 343 343 344 344
351 353 343 346 358 2 357 356 355 350 348 351 346 348 8 356 354 352 352 2 9 4 3 1 0 6 6 4 2 359 357 355 354 353 352 351 349 347 344 344 344 345 345 344
12 343 340 345 351 353 349 351 352 353 353 346 341 346 354 352 353 357 6 18 8 4 359 2 5 6 3 1 358 355 354 353 353 352 351 348 347 346 345 345 344 344 344 346
334 335 334 331 336 347 345 347 349 350 344 342 341 340 346 352 358 7 10 4 3 2 2 359 2 0 357 354 352 353 351 353 353 351 348 347 347 347 348 348 345 345 345 349
325 325 329 335 338 340 341 343 348 344 343 340 340 344 353 355 3 3 3 2 2 4 1 0 359 355 352 350 350 348 349 350 351 351 349 347 348 350 351 352 350 348 351 354
326 326 332 331 334 335 337 339 342 346 346 345 347 347 357 359 2 0 3 6 4 4 2 4 356 352 349 348 345 344 347 350 352 352 350 350 353 354 355 356 355 354 355 357
327 332 329 324 330 331 331 339 349 349 350 347 342 347 350 356 359 3 5 4 1 359 356 355 352 350 349 347 347 350 352 355 355 353 353 355 357 358 357 356 358 360 1 1
328 328 328 324 332 326 338 347 344 345 344 346 347 350 357 360 2 5 4 360 358 355 352 352 355 355 354 355 356 358 1 0 358 356 356 360 0 359 359 0 0 359 2 3
332 331 330 328 327 330 338 344 342 342 343 350 350 353 358 358 6 5 2 3 1 358 357 356 355 355 355 0 4 8 7 5 2 360 3 4 3 2 5 3 2 3 7 14
332 334 329 328 322 321 334 340 345 347 337 354 352 352 353 358 351 356 358 357 358 359 358 355 353 354 358 2 10 9 8 5 4 6 8 9 9 13 10 12 19 26 43 56
322 326 321 322 319 324 331 338 347 332 337 354 355 354 357 355 358 1 1 1 1 0 356 354 354 357 3 9 12 11 10 8 9 13 15 16 21 21 27 37 53 87 115 131
320 320 319 322 320 319 342 347 333 342 353 354 355 359 0 4 4 2 1 360 357 353 352 353 358 2 8 13 16 14 12 13 16 19 21 25 30 37 47 60 83 102 117 135
317 324 325 325 324 335 339 337 342 350 346 350 355 0 3 4 2 1 360 355 353 353 354 358 1 5 11 18 20 16 16 18 21 23 27 36 39 49 61 73 91 108 128 135
323 330 324 328 334 334 338 345 353 354 351 3 2 2 5 2 2 359 357 356 358 357 359 1 3 6 13 22 22 19 20 23 25 28 35 42 46 53 66 74 84 103 117 133
325 350 352 350 349 356 9 20 11 2 2 3 8 4 6 3 358 359 357 0 360 359 0 2 4 11 20 26 22 22 25 29 27 34 40 45 51 58 73 74 96 115 124 133
350 1 3 350 15 7 2 9 13 10 21 16 7 4 1 358 358 358 360 1 1 0 0 3 10 20 27 26 25 25 29 33 31 38 44 49 54 70 85 92 96 107 119 131